sat.trackr.live / text

‹ back to catalog

STELLA

NORAD 22824 · 1993-061B

PAYLOAD ACTIVE UNKNOWN

§ Identity

Operator
Country
FR
Launch date
1993-09-26
Launch site
FRGUI
Launch vehicle
Mass (kg)
RCS (m²)
0.17

Purposes: science

External: N2YO · Heavens-Above · Gunter

§ Orbital elements

Epoch: 2026-09-20T03:54:39.890016Z

Period
100.88 min
Inclination
98.7627°
Eccentricity
0.0005745
Mean motion
14.27472482 rev/d
Perigee alt
796.1 km
Apogee alt
804.3 km
Semi-major
7,178.3 km
B*
-2.7346e-6
RAAN
327.7091°
Arg perigee
329.3679°
Mean anomaly
61.7613°
Rev number
71,832

§ Raw data

STELLA1 22824U 93061B   26263.16296169 -.00000052  00000+0 -27346-5 0  99912 22824  98.7627 327.7091 0005745 329.3679  61.7613 14.27472482718324

JSON: /api/v1/satellites/22824 · /tle

For live sub-satellite position, see the globe view (requires WebGL).

§ Visibility from observer

Set your observer location to see the next 7 days of passes ≥ 10°. The values pass through the URL so the page stays shareable.

No JS? Fill the form by hand. The geolocation button needs JavaScript.